SCP
0 0 0 0 0 0 0 0 0 0 0 0 0 0 0 0 0 0 0 0 0 0 0 0 0 0 0 0 0 0 0 0 0 0 0 0 0 0 0 0 0 0 0 0
0 0 0 0 0 0 0 0 0 0 0 0 0 0 0 0 0 0 0 0 0 0 0 0 0 0 0 0 0 0 0 0 0 0 0 0 0 0 0 0 0 0 0 0
0 0 0 0 0 0 0 0 0 0 0 0 0 0 0 0 0 0 0 0 0 0 0 0 0 0 0 0 0 0 0 0 0 0 0 0 0 0 0 0 0 0 0 0
0 0 0 0 0 0 0 0 0 0 0 0 0 0 0 0 0 0 0 0 0 0 0 0 0 0 0 0 0 0 0 0 0 0 0 0 0 0 0 0 0 0 0 0
0 0 0 0 0 0 0 0 0 0 0 0 0 0 0 0 0 0 0 0 0 0 0 0 0 0 0 0 0 0 0 0 0 0 0 0 0 0 0 0 0 0 0 0
0 0 0 0 0 0 0 0 0 0 0 0 0 0 0 0 0 0 0 0 0 0 0 0 0 0 0 0 0 0 0 0 0 0 0 0 0 0 0 0 0 0 0 0
0 0 0 0 0 0 0 0 0 0 0 0 0 0 0 0 0 0 0 0 0 0 0 0 0 0 0 0 0 0 0 0 0 0 0 0 0 0 0 0 0 0 0 0
0 0 0 0 0 0 0 0 0 0 0 0 0 0 0 0 0 0 0 0 0 0 0 0 0 0 0 0 0 0 0 0 0 0 0 0 0 0 0 0 0 0 0 0
0 0 0 0 0 0 0 0 0 0 0 0 0 0 0 0 0 0 0 0 0 0 0 0 0 0 0 0 0 0 0 0 0 0 0 0 0 0 0 0 0 0 0 0
0 0 0 0 0 0 0 0 0 0 0 0 0 0 0 0 0 0 0 0 0 0 0 0 0 -0 0 0 0 0 0 0 0 0 0 0 0 0 0 0 0 0 0 0
0 0 0 0 0 -0 0 0 0 0 0 0 0 0 0 0 0 0 0 0 0 0 0 0 0 0 0 0 0 0 0 0 0 0 0 0 0 0 0 0 0 0 0 0
0 0 0 0 0 -0 -0 0 0 0 0 0 0 0 0 0 0 0 0 0 0 0 0 0 0 0 0 0 0 0 0 0 0 0 0 0 0 0 0 0 0 0 0 0
0 0 0 0 0 0 0 0 0 0 0 0 0 0 0 0 0 0 0 0 0 0 0 0 0 0 0 0 0 0 0 0 0 0 0 0 0 0 0 0 0 0 0 0
0 0 0 0 0 0 -0 -0 0 0 0 0 0 0 0 0 0 0 0 0 0 -0 0 0 0 0 0 0 0 0 0 0 0 0 0 0 0 0 0 0 0 0 0 0
0 0 0 0 0 0 -0 -0 -0 0 0 0 0 0 0 0 0 0 0 0 0 -0 -0 -0 -0 0 0 0 0 0 0 0 0 0 0 0 0 0 0 0 0 0 0 0
0 0 0 0 0 0 0 0 0 0 0 0 0 0 0 0 0 0 0 0 0 -0 -0 -0 -0 0 0 0 0 0 0 0 0 0 0 0 0 0 0 0 0 0 0 0
0 0 0 0 0 0 0 0 0 0 0 0 0 0 0 0 0 0 0 0 0 -0 -0 -0 -0 0 0 0 0 0 0 0 0 0 0 0 0 0 0 0 0 0 0 0
0 0 0 0 0 0 0 0 0 0 0 0 0 0 0 0 0 0 0 0 0 0 0 0 0 0 0 0 0 0 0 0 0 0 0 0 0 0 0 0 0 0 0 0
0 0 0 0 0 0 0 0 0 0 0 0 0 0 0 0 0 0 0 0 0 0 0 0 0 0 0 0 0 0 0 0 0 0 0 0 0 0 0 0 0 0 0 0
0 0 0 0 0 0 0 0 0 0 0 0 0 0 0 0 0 0 0 0 0 0 0 0 0 0 0 0 0 0 0 0 0 0 0 0 0 0 0 0 0 0 0 0
0 0 0 0 0 0 0 0 0 0 0 0 0 0 0 0 0 0 0 0 0 0 0 0 0 0 0 0 0 0 0 0 0 0 0 0 0 0 0 0 0 0 0 0
0 0 0 0 0 0 0 0 0 0 0 0 0 0 0 0 0 0 0 0 0 0 0 0 0 0 0 0 0 0 0 0 0 0 0 0 0 0 0 0 0 0 0 0
0 0 0 0 0 0 0 0 0 0 0 0 0 0 0 0 0 0 0 -0 -0 -0 -0 0 0 0 0 0 0 0 0 0 0 0 0 0 0 0 0 0 0 0 0 0
0 0 0 0 0 0 0 0 0 0 0 0 0 0 0 0 0 0 0 -0 -0 -0 -0 0 0 0 0 0 0 -0 0 0 0 0 0 0 0 0 0 0 0 0 0 0
0 0 0 0 0 0 0 0 0 0 0 0 0 0 0 0 0 0 0 0 -0 -0 -0 0 0 0 0 0 -0 -0 0 0 0 0 0 0 0 0 0 0 0 0 0 0
0 0 0 0 0 0 0 0 0 0 0 0 0 0 0 0 0 0 0 0 -0 -0 0 0 0 0 0 0 -0 -0 0 0 0 0 0 0 0 0 0 0 0 0 0 0
0 0 0 0 0 0 0 0 0 0 0 0 0 0 0 0 0 0 0 0 0 -0 -0 0 0 0 0 0 -0 -0 -0 0 0 0 0 0 0 0 0 0 0 0 0 0
Wind_Speed
7 7 5 7 8 7 9 9 9 9 9 11 7 6 6 5 4 4 4 4 4 4 4 4 3 4 3 3 3 2 2 3 4 4 3 3 3 3 3 3 3 3 3 3
5 4 5 8 11 10 11 9 10 10 13 9 6 4 4 5 5 5 6 5 5 5 4 4 4 4 3 3 3 2 3 4 4 3 3 3 3 3 3 3 3 3 3 3
5 4 5 9 9 10 7 8 8 11 11 4 3 5 6 6 5 6 6 6 5 5 5 5 5 4 4 4 3 2 3 4 3 3 3 3 3 3 3 3 3 3 3 3
3 3 7 7 2 5 6 7 8 8 6 4 6 6 6 6 6 6 5 5 5 4 5 4 4 3 3 3 2 3 3 4 3 3 3 3 3 4 4 3 3 4 4 4
2 4 10 8 3 3 4 6 5 7 7 5 4 4 5 4 4 5 5 5 5 4 4 3 4 3 2 2 3 3 4 4 4 3 4 3 4 4 3 3 3 4 3 4
3 4 8 6 1 1 2 5 2 3 4 3 0 3 6 3 3 4 4 3 3 3 2 3 4 2 2 3 3 5 5 5 4 3 4 4 4 4 3 3 4 3 4 4
6 7 11 7 2 2 2 5 2 2 3 3 4 6 5 5 4 4 4 4 3 2 3 4 3 2 3 4 5 6 4 4 4 4 4 4 4 3 3 3 3 3 4 4
6 7 11 3 3 4 6 3 2 3 3 4 6 6 6 5 5 4 4 4 3 3 4 4 3 3 4 6 6 4 3 3 4 4 4 3 3 3 3 3 3 3 4 4
9 10 5 2 4 4 3 4 4 4 5 5 6 6 6 5 5 5 5 4 3 3 4 4 4 4 6 6 4 3 3 4 4 4 3 3 3 3 2 2 3 3 3 4
6 9 8 7 6 6 5 6 6 6 6 6 7 7 7 6 6 5 5 5 4 3 4 5 5 4 6 5 4 3 4 4 3 3 3 3 3 3 3 3 3 3 4 4
8 8 8 7 6 7 6 6 6 6 6 7 7 7 7 6 6 6 5 5 4 4 5 7 5 5 5 4 4 4 4 4 3 3 3 3 3 4 4 5 5 5 4 4
10 8 7 8 6 6 7 7 7 7 7 6 6 8 7 7 6 5 5 5 5 5 6 6 5 6 5 4 4 4 4 4 3 3 3 3 3 4 6 7 9 10 9 7
11 8 9 9 7 6 7 8 7 7 8 8 7 6 6 6 6 5 6 6 6 6 6 6 6 6 5 4 4 5 5 4 3 3 3 3 3 3 4 5 7 9 10 10
8 6 8 8 8 7 7 7 7 6 6 6 6 6 5 6 6 6 7 6 6 6 6 6 6 7 5 4 4 5 5 5 4 4 3 3 3 3 3 4 4 4 5 8
7 7 8 8 7 6 5 5 6 6 6 6 5 5 5 6 7 7 6 5 4 5 6 5 6 7 4 4 4 5 4 4 3 3 3 3 3 3 3 4 4 4 3 4
5 5 5 6 7 7 6 5 6 7 6 6 5 5 6 6 6 6 6 4 4 6 6 6 7 7 4 4 4 4 4 6 5 3 3 3 3 3 3 3 4 4 4 3
5 6 5 6 7 7 7 7 7 7 6 6 7 6 5 5 5 6 6 5 5 6 6 6 7 6 4 4 4 4 3 4 6 4 3 3 3 4 4 4 4 4 4 4
6 7 7 7 7 8 8 7 6 6 7 7 6 5 5 5 6 7 6 5 5 6 6 6 6 5 4 4 4 3 3 3 4 4 3 3 4 4 4 4 4 5 4 4
5 6 6 7 6 6 6 7 6 6 6 5 5 6 6 6 6 6 5 5 5 7 7 5 6 4 4 5 5 3 4 4 4 3 3 5 4 3 4 4 4 4 4 4
4 5 5 5 5 5 6 6 6 6 6 5 5 5 6 6 5 5 5 6 6 6 5 5 5 4 4 5 5 3 4 4 4 3 3 3 4 4 4 4 4 4 4 4
5 5 5 5 5 5 5 5 5 6 6 5 5 6 7 7 5 4 4 6 6 5 5 7 4 4 4 4 5 3 4 4 4 4 4 4 4 4 4 4 4 4 4 4
5 5 5 5 5 6 6 5 4 5 6 5 5 5 6 6 6 5 6 6 6 7 4 3 3 5 6 5 3 3 3 4 4 3 3 4 4 4 4 4 4 4 4 4
5 5 6 6 6 6 7 5 5 5 6 6 6 6 6 6 5 5 6 5 4 6 5 4 6 8 8 4 3 3 4 4 4 4 4 4 4 4 4 5 4 4 4 3
6 6 6 6 5 5 7 7 6 5 6 6 6 6 6 5 5 5 5 7 9 8 5 6 9 9 8 3 3 3 3 4 4 4 4 4 4 4 4 4 4 4 4 4
7 6 6 6 6 6 7 7 6 6 6 5 6 6 5 5 5 5 4 5 8 8 5 6 9 8 5 3 3 3 3 4 4 4 4 4 4 4 4 4 4 4 4 4
7 6 6 7 6 6 6 5 5 5 5 6 6 5 4 4 5 5 4 5 6 7 6 4 4 5 3 3 3 4 3 4 4 4 4 4 4 4 4 4 5 4 4 4
7 6 5 6 6 6 5 5 6 6 6 6 6 5 5 4 4 4 5 4 4 4 4 4 3 3 3 3 3 3 3 3 3 4 4 4 3 3 3 4 4 3 3 4
Wind_Direction
254 261 254 249 246 220 211 211 217 241 244 262 266 264 266 272 279 280 278 274 259 257 261 262 263 263 260 261 259 246 239 246 252 256 252 249 248 239 231 226 226 222 226 239
278 262 253 259 248 231 230 229 238 259 269 261 260 255 260 261 258 262 267 268 266 263 262 260 257 259 262 261 256 239 241 252 259 255 251 250 251 242 231 233 232 222 224 232
275 304 313 268 238 208 212 211 203 231 249 269 271 263 253 250 249 250 258 264 265 264 257 256 254 248 251 257 256 242 247 257 259 248 248 252 252 245 237 235 228 227 230 230
284 340 252 248 224 197 217 239 221 240 260 263 256 269 263 246 241 253 256 257 263 264 263 260 250 244 249 255 250 247 254 258 256 249 251 256 251 248 245 235 231 232 235 234
226 266 279 291 263 185 202 270 228 232 261 273 284 310 292 249 225 239 248 253 257 256 256 255 250 240 237 256 252 254 257 257 254 250 251 250 251 252 248 238 241 238 238 233
200 235 253 258 273 198 138 283 253 208 251 270 327 308 282 277 259 264 268 266 266 271 268 261 259 229 226 250 250 253 254 255 256 247 244 246 248 252 251 239 243 242 246 238
217 240 263 259 258 124 189 260 283 219 253 249 229 239 267 292 288 271 270 273 269 266 264 260 254 221 235 246 250 253 255 256 257 249 244 247 248 246 247 245 247 247 252 252
191 218 253 238 143 186 229 271 277 266 260 255 259 271 280 284 282 280 282 279 270 267 273 270 248 223 241 252 256 257 252 253 254 252 248 248 242 251 246 238 244 252 256 266
202 221 250 213 223 247 256 270 268 266 272 269 273 276 279 280 277 276 272 270 263 254 269 275 255 227 240 257 254 248 251 254 256 258 253 241 236 244 250 238 239 249 247 259
254 264 266 266 265 268 258 259 268 269 271 267 266 270 275 275 273 272 270 268 263 256 263 273 266 250 244 251 244 235 246 255 255 254 262 255 243 236 236 237 239 246 247 255
253 272 291 276 257 259 267 271 277 278 266 257 261 269 268 268 268 267 268 266 256 249 257 265 266 263 259 245 230 236 246 252 253 248 250 254 250 239 238 234 231 238 239 238
245 245 248 267 265 266 272 276 278 281 280 271 256 261 266 265 264 262 263 264 261 257 256 262 260 262 261 243 222 225 244 248 246 246 249 249 259 274 260 254 262 258 255 250
247 259 257 269 276 269 269 276 278 272 269 274 268 258 260 264 265 259 259 259 258 259 259 261 261 262 261 244 223 221 233 242 243 240 242 245 249 261 282 281 267 265 264 262
252 262 270 268 272 279 277 277 277 276 272 268 269 268 263 265 267 262 261 260 259 260 261 260 260 262 259 239 227 229 234 241 240 237 238 239 243 250 258 272 286 283 269 265
254 242 253 273 280 283 283 286 290 288 286 283 273 269 266 265 268 269 270 268 265 264 263 259 260 265 259 234 228 231 234 239 236 237 239 242 244 248 254 259 265 276 284 280
273 268 260 265 274 282 286 281 278 282 284 281 282 278 270 266 270 274 273 262 257 265 266 262 263 267 255 235 234 236 235 240 239 238 240 244 244 246 253 256 261 263 265 271
263 272 271 278 280 282 277 269 266 271 275 275 275 275 274 275 277 277 278 271 260 263 265 261 265 269 255 237 229 234 235 241 240 240 236 238 241 244 249 252 256 260 261 261
239 247 253 257 265 273 277 275 271 270 270 271 277 275 269 265 268 276 283 285 282 280 272 263 261 261 251 240 230 230 230 232 230 234 238 240 244 243 245 250 255 259 268 269
268 264 268 266 263 263 268 273 273 270 273 273 270 267 267 266 266 271 274 273 274 279 280 270 264 258 251 245 238 232 231 235 238 239 236 247 252 247 245 249 253 253 256 259
290 281 278 280 278 268 271 276 277 277 276 270 268 273 278 276 270 266 266 265 260 261 271 275 271 262 255 249 240 231 230 234 237 240 238 239 244 249 248 250 254 255 251 251
297 294 292 293 294 292 284 282 282 282 283 272 263 267 273 278 275 265 266 276 277 268 266 269 267 263 260 253 241 231 230 234 236 237 238 241 245 248 249 250 252 253 251 250
284 286 288 290 292 294 293 288 279 280 284 281 275 271 274 279 279 274 259 257 271 278 278 267 261 262 266 264 242 232 236 237 239 238 237 238 239 244 248 249 250 250 247 246
274 276 279 281 281 285 292 290 281 279 278 275 273 271 269 269 267 268 279 275 269 275 275 266 270 274 275 269 246 237 238 241 242 239 238 238 238 240 245 248 247 246 245 247
270 273 275 278 281 285 287 287 285 280 274 272 268 264 263 270 273 255 254 274 280 281 273 271 276 278 280 268 252 245 244 244 244 242 241 242 242 243 246 246 246 243 243 246
267 268 270 273 274 272 272 278 285 284 282 279 275 268 257 245 253 266 266 266 273 279 276 276 279 278 272 258 250 250 249 246 245 242 238 240 241 243 244 242 241 243 243 244
265 264 263 258 258 262 266 268 272 277 278 280 281 273 265 258 252 257 263 264 265 271 271 270 271 269 262 256 254 253 254 263 266 256 246 246 246 244 243 242 243 243 245 246
264 263 265 268 264 253 251 255 261 268 267 267 274 274 268 265 261 260 261 264 266 265 263 263 261 257 255 252 252 253 253 254 253 252 252 249 247 245 244 244 245 244 243 245